Zurück zum Katalog

STARLINK-3502

AktivKommunikationVLEO
NORAD 51746·PAYLOAD·🇺🇸 United States

Gestartet Feb 21, 2022 von Cape Canaveral Space Force Station

Loading…

Nächste Überflüge (nächste 24 Stunden)

TLE

AktuellSource: CelesTrak SupGP

Epoche: Sep 14, 2026, 20:07 UTC

1 51746C 22016AJ  26257.83868056 -.00016555  00000+0 -53237-3 0  2573
2 51746  53.1582 168.1286 0001348  91.2460 325.8337 15.31709736    13

Verfolge STARLINK-3502 in Echtzeit mit AllMySat

Download on the App Store